ONEWEB-0052 (45156 NORAD) Tracking and Keplerian Element Data

This shows tracking and keplerian element data for the satellite.

Feedback or suggestion? Click here.




ElementValue
Catalog45156
NameONEWEB-0052
Epoch Orbit926
Epoch Day94.12760861
Epoch Year2020
RAAN145.4906
Inclination87.4173
Eccentricity0.0025401
Argument of Perigee102.6405
Mean Anonmoly257.7654
Mean Motion14.68567973
Decay Rate-0.00264575
L11 45156U 20008AB 20094.12760861 -.00264575 00000-0 -47210-1 0 9993
L22 45156 87.4173 145.4906 0025401 102.6405 257.7654 14.68567973 9261

Live tracking and technical data element details for ONEWEB-0052 (NORAD 45156). ONEWEB-0052 can be tracked NOW for your location showing map with azimuth and elevation plus other details from your city location.

Track the satellite on the map from your city or location and see movement details for azimuth, elevation, latitude, longitude, range, height, and movement on the map or in text.







IsCatalogInMostPopularTable: catalog: 45156, numindb: 11
Update: records affected: 1



GetName: 45156 ONEWEB-0052

Hit Count: updated at: Sun, 05 Apr 2020 18:48:19 GMT